Starlink 2701

operational
NORAD ID: 48656 Int'l Des: 2021-044 Owner: SPXS Country: US Constellation: starlink
LEOCIRCULARSTARLINK_TYPE

Über Starlink 2701

Beschreibung wird geladen...

Live-Position

3D-Globus wird geladen...

Nächste Überflüge

Höhenverlauf

Altitude vs Time

uPlot chart will show altitude changes over time

Zweizeiliger Elementsatz

1 48656U 21044U 26035.36707776 -.00001589 00000-0 -41550-4 0 9993
2 48656 53.1600 268.6397 0001393 95.9391 264.1768 15.30192785258728
Epoch: 4. Feb. 2026 • Age: 9 hours

Aktueller Status

Höhe 481.1 km
Geschwindigkeit 7.62 km/s
Subsatellitenpunkt -20.04°S, 64.72°E
Startdatum 26. Mai 2021
Alter 4.6 years
Typ internet

Technische Details

Klassifizierung Payload
Masse 260.00 kg
Trockenmasse 248.00 kg
Gesamtmasse 260.00 kg
Länge 0.20 m
Durchmesser 2.80 m
Spannweite 9.00 m
Form Box + pan
Hersteller SPXS
Bus-Typ Starlink
Phasenstatus In Orbit
Besitzer/Staat SPXS/US

Große Konstellationen

Loading constellations...